Weather History for Leadville, CO

Change the Weather History Date:

Monday, May 26, 2014

  Actual Average Record
Temperature  
Mean Temperature 43 °F -  
Max Temperature 60 °F 58 °F 69 °F (2006)
Min Temperature 26 °F 29 °F 24 °F (1977)
Degree Days  
Heating Degree Days 22 21  
Month to date heating degree days 686 650  
Since 1 July heating degree days 10572 10651  
Cooling Degree Days 0 0  
Month to date cooling degree days 0 0  
Year to date cooling degree days 0 0  
Moisture  
Dew Point 26 °F    
Average Humidity 58    
Maximum Humidity 92    
Minimum Humidity 24    
Precipitation  
Precipitation 0.00 in 0.03 in 0.04 in (1993)
Month to date precipitation 1.45 0.68  
Year to date precipitation 8.16 4.01  
Sea Level Pressure  
Sea Level Pressure 30.04 in    
Wind  
Wind Speed 7 mph (North)    
Max Wind Speed 21 mph    
Max Gust Speed 24 mph    
Visibility 10 miles    
Events      
T = Trace of Precipitation, MM = Missing Value Source: NWS Daily Summary

Daily Weather History Graph

Daily Weather History Graph

Search for Another Location

Airport:

Trip Planner

Search our weather history database for the weather conditions in past years. The results will help you decide how hot, cold, wet, or windy it might be!

Date:

Astronomy

May. 26, 2014 Rise Set
Actual Time 5:43 AM MDT 8:21 PM MDT
Civil Twilight 5:12 AM MDT 8:52 PM MDT
Nautical Twilight 4:33 AM MDT 9:31 PM MDT
Astronomical Twilight 3:50 AM MDT 10:15 PM MDT
Moon 4:26 AM MDT (5/26) 6:27 PM MDT (5/26)
Length of Visible Light 15h 39m
Length of Day
14h 37m
Waning Crescent, 4% of the Moon is Illuminated
May 26
Waning Crescent
May 28
New
Jun 5
First Quarter
Jun 12
Full
Jun 19
Last Quarter

Hourly Weather History & Observations

Time (MDT) Temp. Windchill Dew Point Humidity Pressure Visibility Wind Dir Wind Speed Gust Speed Precip Events Conditions
12:53 AM 30.0 °F - 27.0 °F 88% 30.05 in 10.0 mi Calm Calm - N/A   Clear
1:53 AM 28.9 °F 25.2 °F 26.1 °F 89% 30.09 in 10.0 mi ENE 3.5 mph - N/A   Clear
2:25 AM 28.9 °F 22.8 °F 28.0 °F 96% 30.28 in 10.0 mi NE 5.8 mph - N/A   Scattered Clouds
2:34 AM 28.9 °F 21.9 °F 28.0 °F 96% 30.28 in 10.0 mi NE 6.9 mph - N/A   Mostly Cloudy
2:51 AM 28.4 °F 22.2 °F 28.4 °F 100% 30.27 in 10.0 mi NE 5.8 mph - N/A   Scattered Clouds
2:53 AM 28.9 °F 23.9 °F 27.0 °F 92% 30.05 in 10.0 mi NE 4.6 mph - N/A   Scattered Clouds
3:53 AM 28.0 °F 24.2 °F 26.1 °F 92% 30.05 in 10.0 mi West 3.5 mph - N/A   Clear
4:53 AM 27.0 °F 20.5 °F 25.0 °F 92% 30.04 in 10.0 mi ENE 5.8 mph - N/A   Clear
5:53 AM 27.0 °F 20.5 °F 24.1 °F 89% 30.09 in 10.0 mi NNE 5.8 mph - N/A   Clear
6:53 AM 30.0 °F 25.2 °F 26.1 °F 85% 30.07 in 10.0 mi North 4.6 mph - N/A   Clear
7:53 AM 35.1 °F 30.1 °F 28.9 °F 78% 30.05 in 10.0 mi West 5.8 mph - N/A   Clear
8:53 AM 44.1 °F 42.5 °F 27.0 °F 51% 30.01 in 10.0 mi Variable 3.5 mph - N/A   Clear
9:53 AM 48.0 °F - 23.0 °F 37% 30.01 in 10.0 mi Calm Calm - N/A   Clear
10:53 AM 48.9 °F - 21.9 °F 35% 30.01 in 10.0 mi South 6.9 mph - N/A   Clear
11:53 AM 52.0 °F - 21.0 °F 30% 29.99 in 10.0 mi NW 5.8 mph - N/A   Scattered Clouds
12:53 PM 54.0 °F - 19.9 °F 26% 29.96 in 10.0 mi North - - N/A   Scattered Clouds
1:53 PM 55.0 °F - 19.0 °F 24% 29.96 in 10.0 mi WNW 8.1 mph - N/A   Mostly Cloudy
2:53 PM 57.0 °F - 21.9 °F 26% 29.93 in 10.0 mi Variable 3.5 mph - N/A   Mostly Cloudy
3:53 PM 57.9 °F - 28.9 °F 33% 29.94 in 10.0 mi WNW 13.8 mph 23.0 mph N/A   Scattered Clouds
4:53 PM 57.9 °F - 23.0 °F 26% 29.95 in 10.0 mi WNW 15.0 mph 21.9 mph N/A   Overcast
5:53 PM 57.9 °F - 24.1 °F 27% 29.96 in 10.0 mi NW 15.0 mph 23.0 mph N/A   Mostly Cloudy
6:53 PM 55.9 °F - 26.1 °F 32% 29.96 in 10.0 mi WNW 15.0 mph - N/A   Clear
7:53 PM 54.0 °F - 27.0 °F 35% 29.96 in 10.0 mi NNW 5.8 mph - N/A   Mostly Cloudy
8:53 PM 48.0 °F - 30.9 °F 52% 29.97 in 10.0 mi North 5.8 mph - N/A   Clear
9:53 PM 39.9 °F 35.1 °F 30.0 °F 68% 30.02 in 10.0 mi NE 6.9 mph - N/A   Clear
10:53 PM 39.0 °F 33.4 °F 28.9 °F 67% 30.03 in 10.0 mi ENE 8.1 mph - N/A   Clear
11:53 PM 39.0 °F 34.0 °F 28.9 °F 67% 30.01 in 10.0 mi NE 6.9 mph - N/A   Clear